Tracking 28790 objects as of 19-Apr-2024
HD Live streaming from Space Station
objects crossing your sky now

CZ-2C R/B

Track CZ-2C R/B now!
10-day predictions


NORAD ID: 45463
Int'l Code: 2020-021D
Perigee: 242.1 km
Apogee: 271.9 km
Inclination: 34.7 °
Period: 89.5 minutes
Semi major axis: 6627 km
RCS: Unknown
Launch date: March 24, 2020
Source: People's Republic of China (PRC)
Launch site: Xichang Space Center, China (XSC)

Note: This is a ROCKET BODY
Your satellite tracking list
Your tracking list is empty




NASA's NSSDC Master Catalog

Two Line Element Set (TLE):
1 45463U 20021D   24110.12654985  .01062077  64052-3  11103-2 0  9996
2 45463  34.6670  22.4885 0022495 223.4740 273.5281 16.08913422228492
Source of the keplerian elements: AFSPC